www.pogodaiklimat.ru

Погода и климат >> Архив погоды >> Казахстан >> Комсомольское


ПОГОДА в Комсомольском

  • Прогноз погоды в Комсомольском
  • Монитор погоды в Комсомольском

АРХИВ ПОГОДЫ в Комсомольском

Время (UTC), дата Ветер
(напр.,м/с)
 
Видим.   Явления Облачность Т
(С)
Тd
(С)
f
(%)
Тe
(С)
Тes
(С)
Комфортность P
(гПа)
Po
(гПа)
Тmin
(С)
Tmax
(С)
R
(мм)
R24
(мм)
S
(см)
18 10.09 штиль 0 н/о ясно +12.8 +4.0 55 +13 +13 1027.6 994.6 +20.5
21 10.09 штиль 0 н/о ясно +10.2 +4.1 66 +10 +10 1029.0 995.6
00 11.09 штиль 0 н/о ясно +7.9 +3.7 75 +7 +7 1030.0 996.3
03 11.09 штиль 0 20 км 8/8 600 м
[Sc]
+10.7 +5.5 70 +10 +11 1031.0 997.6
06 11.09 СВ 1 20 км 3/3 1000 м
[Cu hum]
+16.7 +7.1 53 +18 +24 1031.4 998.7 +7.8
09 11.09 С 4 20 км 8/8 600 м
[Cb cap]
+19.6 +5.9 41 +20 +22 1030.8 998.4
12 11.09 С 4 20 км 6/6 1000 м
[Cu hum]
+20.8 +6.6 40 +22 +23 комфорт 1030.2 998.0
15 11.09 СВ 1 10 км 3/0
[Ac cuf]
+17.8 +3.4 38 +19 +19 1030.8 998.2 +22.5
18 11.09 штиль 0 н/о ясно +11.7 +2.2 52 +11 +11 1032.6 999.2 +22.5
21 11.09 штиль 0 н/о ясно +8.5 +0.8 58 +8 +8 1032.6 998.8
00 12.09 штиль 0 н/о ясно +6.4 +0.8 67 +6 +6 1032.9 998.9
03 12.09 штиль 0 20 км ясно +7.5 +1.0 63 +7 +8 1032.6 998.7
06 12.09 штиль 0 20 км ясно +20.0 +3.0 32 +20 +30 1030.7 998.3 +5.2
09 12.09 штиль 0 20 км ясно +22.2 +3.0 28 +22 +34 комфорт 1029.1 997.0
12 12.09 штиль 0 20 км ясно +23.4 +1.9 24 +23 +26 комфорт 1026.8 994.9
15 12.09 С 1 10 км ясно +19.8 +3.9 35 +21 +21 комфорт 1026.4 994.2 +25.4
18 12.09 СЗ 2 н/о ясно +13.8 +1.3 43 +14 +14 1027.3 994.3 +25.4
21 12.09 СЗ 2 н/о ясно +10.0 +0.8 53 +9 +9 1026.8 993.4
00 13.09 СЗ 1 н/о ясно +9.2 +1.2 57 +9 +9 1026.5 993.0
03 13.09 штиль 0 20 км ясно +10.4 +3.0 60 +10 +11 1026.5 993.2
06 13.09 штиль 0 20 км ясно +21.1 -0.9 23 +21 +31 комфорт 1025.2 993.1 +8.9
09 13.09 СВ 2 20 км ясно +24.7 +5.3 29 +24 +33 комфорт 1023.7 992.0
12 13.09 штиль 0 20 км 3/3 1000 м
[Cu hum]
+24.4 +2.5 24 +24 +26 комфорт 1022.2 990.6
15 13.09 штиль 0 20 км ясно +21.8 +3.7 30 +22 +22 комфорт 1021.8 989.9 +26.5
18 13.09 СЗ 1 н/о ясно +15.2 +3.1 44 +16 +16 1022.8 990.1 +26.5
21 13.09 штиль 0 н/о ясно +12.6 +2.9 52 +12 +12 1022.9 989.9
00 14.09 штиль 0 н/о ясно +10.2 +2.3 58 +10 +10 1022.4 989.2
03 14.09 штиль 0 20 км ясно +10.8 +3.3 60 +10 +12 1022.2 989.0
06 14.09 штиль 0 20 км ясно +22.4 +7.5 38 +23 +33 комфорт 1020.4 988.7 +10.1
09 14.09 С 2 20 км 6/6 1000 м
[Cu hum]
+24.6 +6.6 32 +25 +28 комфорт 1019.1 987.6
12 14.09 З 2 20 км 8/8 1000 м
[Cu hum]
+24.4 +4.8 28 +24 +24 комфорт 1018.1 986.6
15 14.09 З 2 10 км 8/5 600 м
[Sc Ac cuf]
+21.1 +3.1 31 +21 +21 комфорт 1018.3 986.4 +27.0
18 14.09 штиль 0 н/о 4/0
[Ac lent]
+14.3 +1.5 42 +14 +14 1019.1 986.4 +27.0
21 14.09 штиль 0 н/о ясно +13.8 +2.0 45 +14 +14 1019.1 986.4
00 15.09 штиль 0 н/о ясно +11.7 +2.5 53 +11 +11 1019.1 986.2
03 15.09 штиль 0 20 км ясно +8.8 +4.3 73 +8 +9 1019.5 986.2
06 15.09 З 1 20 км 8/0
[Ac trans]
+22.7 +6.7 36 +23 +28 комфорт 1018.0 986.3 +8.7
09 15.09 ЮЗ 5 20 км 8/8 1000 м
[Cu med, cong]
+26.2 +6.2 28 +26 +27 жарко 1016.5 985.2
12 15.09 ЮЗ 4 20 км 8/4 1000 м
[Cu med, cong Ac trans]
+25.4 +6.0 29 +25 +26 комфорт 1015.6 984.3
15 15.09 ЮЗ 2 10 км 8/8 600 м
[Sc diur, vesp]
+20.3 +2.7 31 +21 +21 комфорт 1015.6 983.7 +27.0
18 15.09 З 1 н/о 8/5 600 м
[Sc Ac trans]
+16.3 +0.5 34 +17 +17 1015.6 983.3 +27.0
21 15.09 ЮЗ 2 н/о 9/9 600 м
[Sc]
+15.0 +1.7 41 +15 +15 1014.3 981.9
00 16.09 ЮЗ 3 н/о 8/8 600 м
[Sc]
+13.6 +3.5 50 +13 +13 1013.2 980.7
03 16.09 Ю 3 20 км 10/8 600 м
[Sc Ac und]
+12.7 +3.9 55 +12 +12 1012.6 980.0
06 16.09 З 5 20 км 3/0
[Ac lent Ci fib]
+10.7 +2.5 57 +8 +11 1012.6 980.5 +12.6
09 16.09 З 10 20 км пыльный позёмок 9/6 1000 м
[Cu med, cong Ci fib]
+18.2 +3.7 38 +17 +17 1012.3 980.3
12 16.09 З 10 20 км пыльный позёмок 10/0
[Ac As]
+18.4 +0.4 30 +17 +17 1012.3 980.3
15 16.09 З 2 н/о {метель} 10/0
[Ac und]
+16.2 +1.0 36 +16 +16 1012.8 980.6 +20.5
18 16.09 ЮЗ 2 н/о {метель} 9/0
[Ac trans Ci ing]
+11.6 +0.6 47 +11 +11 1013.8 981.0 +20.5
21 16.09 ЮЗ 2 н/о 9/0
[Cs]
+9.0 +1.3 58 +8 +8 1014.2 981.1
00 17.09 штиль 0 н/о 6/0
[Ac trans Ci ing]
+5.2 +0.9 74 +4 +4 1014.8 981.3
03 17.09 ЮЗ 3 20 км 9/0
[Ac lent Ci]
+7.1 +2.8 74 +4 +5 1014.4 981.1

 

Местоположение метеостанции Комсомольское (Костанайская область, Казахстан): широта 50.42 долгота 60.47 высота над уровнем моря 247 м.

В архиве по умолчанию представлена погода в Комсомольском за последнюю неделю. Архивные данные за месяц целиком и за предыдущие месяцы, начиная с января 2011 года, Вы можете получить, выбрав интересующий диапазон дат из раскрывающегося списка и нажав кнопку "Ввод!".


*Определитесь, кто Вы:
робот инопланетянин человек

Внимание! Время в таблицах - всемирное. Для получения местного времени необходимо прибавить поправку, которая равна 5 ч.

Смотрите также архив погоды в соседних городах и на ближайших метеорологических станциях:

Погода в Карабутаке (Актюбинская область, Казахстан) (58 км)
Погода в Домбаровском (Оренбургская область, Россия) (75 км)
Погода в Зерносовхозе Озерном (Оренбургская область, Россия) (81 км)
Погода в Баскудуке (Мангистауская область, Казахстан) (87 км)
Погода в Теренсае (Актюбинская область, Казахстан) (109 км)
Погода в Степном (Актюбинская область, Казахстан) (131 км)
Погода в Орске (Оренбургская область, Россия) (150 км)
Погода в Аралколе (Актюбинская область, Казахстан) (173 км)
Погода в Айдырля (Оренбургская область, Россия) (175 км)
Погода в Акжаре (Актюбинская область, Казахстан) (177 км)

Пояснения к столбцам:

Ветер - указаны скорость ветра в м/с - средняя за 10 мин, порывы в срок и между сроками (в фигурных скобках) и направление, откуда дует ветер: С - северный, СВ - северо-восточный, В - восточный, ЮВ - юго-восточный, Ю - южный, ЮЗ - юго-западный, З - западный, СЗ - северо-западный.
Видимость - горизонтальная дальность видимости в метрах или километрах. При видимости от 1 до 10 км при отсутствии осадков обычно наблюдается дымка, при ухудшении видимости до 1 км и менее - туман. В сухую погоду видимость может ухудшаться дымом, пылью или мглою.
Явления - указаны атмосферные явления, наблюдавшиеся в срок или в последний час перед сроком; фигурными скобками обозначены явления, наблюдавшиеся между сроками (за 1-3 часа до срока); квадратными скобками обозначены град или гололедные отложения с указанием их диаметра в мм.
Облачность - указаны через наклонную черту общая и нижняя облачность в баллах и высота нижней границы облаков в метрах; квадратными скобками обозначены формы облаков: Ci - перистые, Cs - перисто-слоистые, Cc - перисто-кучевые, Ac - высококучевые, As - высокослоистые, Sc - слоисто-кучевые, Ns - слоисто-дождевые, Cu - кучевые, Cb - кучево-дождевые. Подробнее классификацию облаков см. в Атласе облаков (PDF).
T - Температура воздуха - температура, измеренная на высоте 2 м над землей.
Td - Температура точки росы - температура, при понижении до которой содержащийся в воздухе водяной пар достигнет насыщения.
f - Относительная влажность воздуха - влажноcть воздуха, измеренная на высоте 2 м над землей.
Te - Эффективная температура - температура, которую ощущает одетый по сезону человек в тени. Характеристика душности погоды. При расчете учитывается влияние влажности воздуха и скорости ветра на теплоощущения человека.
Tes - Эффективная температура на солнце - температура, которую ощущает человек, с поправкой на солнечный нагрев. Характеристика знойности погоды. Зависит от высоты солнца над горизонтом, облачности и скорости ветра. Ночью, в пасмурную погоду, а также при ветре 12 м/с и более поправка равна нулю.
P - Атмосферное давление - приведенное к уровню моря атмосферное давление.
Po - Атмосферное давление - измеренное на уровне метеостанции атмосферное давление.
Tmin - Минимальная температура - минимум температуры воздуха на высоте 2 м над землей.
Tmax - Максимальная температура - максимум температуры воздуха на высоте 2 м над землей.
R - Количество осадков - Количество выпавших осадков за период времени, мм. При наведении курсора мыши на число - период времени, за который выпало указанное количество осадков.
R24 - Количество осадков - Количество выпавших осадков за 24 часа, мм.
S - Снежный покров - Высота снежного покрова, см. При наведении курсора мыши на число - состояние снежного покрова и степень покрытия местности в баллах.